Wind_Speed
12 11 11 10 10 10 10 9 9 8 8 7 7 6 6 5 5 5 5 5 4 4 4 4 4 3 3 3 3 3 3 3 3 2 2 2 3 3 4 4 4 5 5
14 13 13 12 12 11 11 11 10 9 9 9 8 8 8 7 7 7 6 6 6 6 5 5 5 5 5 5 4 4 4 5 4 4 4 4 4 5 5 5 5 6 6
15 15 15 14 13 13 13 13 12 11 11 11 10 10 10 9 9 8 8 8 7 7 7 7 7 6 7 7 6 6 6 6 6 6 6 6 6 6 6 7 7 7 7
17 16 16 16 15 15 14 14 14 13 12 12 12 12 11 11 10 10 10 10 9 9 9 8 8 8 8 8 8 8 8 7 7 7 7 7 7 7 8 8 8 9 9
19 18 18 18 17 16 16 16 15 15 14 14 13 13 13 12 12 12 12 12 11 11 11 11 11 10 10 10 10 10 9 9 9 9 9 9 9 9 9 10 10 10 10
21 20 20 19 19 18 18 17 17 17 16 16 16 15 15 14 14 13 13 13 13 13 13 12 12 11 12 12 12 12 11 11 11 11 11 11 11 11 11 11 11 12 12
23 22 22 22 21 20 20 19 19 19 18 17 17 17 16 16 16 15 15 15 15 15 14 14 14 14 14 14 14 14 13 13 13 13 12 12 12 12 12 12 13 13 12
25 24 24 24 24 23 22 21 21 21 20 19 19 18 18 17 17 17 17 17 17 16 16 16 16 16 16 16 15 15 15 15 15 14 14 14 14 14 14 14 14 14 14
28 27 26 26 25 25 24 24 23 23 22 22 21 20 20 19 19 18 18 18 19 19 18 18 18 18 18 18 18 17 17 17 17 16 16 16 15 15 15 16 16 15 15
30 30 29 28 27 28 27 26 25 25 25 24 24 23 22 21 21 21 21 20 20 21 20 20 20 20 20 19 19 19 19 19 18 18 18 17 17 17 17 17 17 17 17
33 32 31 31 30 30 29 28 27 27 27 26 26 26 25 24 23 23 23 22 23 23 23 22 22 22 21 21 21 21 21 21 20 20 19 19 19 19 18 19 19 18 18
34 34 33 33 32 32 31 30 30 29 29 29 28 28 27 26 26 25 25 24 24 24 25 25 24 24 23 23 23 23 23 23 22 22 22 21 21 20 20 20 20 20 20
35 35 35 35 34 34 33 33 32 31 31 31 30 30 29 29 28 27 26 26 26 27 27 26 26 26 24 24 24 24 24 24 24 23 23 23 22 22 22 22 22 22 22
36 36 37 36 35 35 35 35 34 33 33 33 32 31 31 31 30 29 29 28 28 28 28 28 28 27 27 27 27 26 26 26 25 25 25 25 25 25 25 24 24 24 24
38 38 38 38 37 37 37 37 36 35 34 34 34 34 33 32 32 31 31 30 30 30 30 30 29 29 29 28 29 29 28 28 27 27 27 27 27 27 27 26 26 26 26
40 40 39 39 39 39 39 38 38 37 36 36 35 35 35 34 34 33 33 32 32 32 32 32 31 31 31 31 30 31 31 30 30 30 30 30 30 30 29 29 28 28 28
41 41 41 41 41 41 41 40 39 39 38 37 37 37 36 36 36 35 35 34 34 34 34 33 33 33 33 33 33 33 33 33 33 32 32 32 32 32 32 31 30 30 30
43 43 43 43 43 43 43 42 41 40 40 40 39 38 38 38 38 38 37 36 36 36 36 35 35 35 35 35 35 35 35 35 34 34 34 34 34 34 34 33 33 32 31
45 45 45 45 45 45 44 43 42 43 42 42 41 40 40 40 40 40 39 38 38 38 37 37 37 37 37 37 37 37 37 37 36 36 36 36 36 35 35 35 34 34 33
46 47 47 46 47 47 47 45 45 44 44 44 43 43 43 43 42 42 41 41 40 40 39 38 38 38 38 38 38 37 38 38 37 37 37 37 37 37 37 37 36 36 35
47 47 47 47 48 47 47 47 46 46 46 46 46 46 45 45 45 43 43 42 41 41 41 40 39 39 38 38 38 38 38 38 37 37 37 37 37 37 37 37 37 37 36
47 48 48 49 49 49 49 48 48 48 48 48 48 48 47 47 46 45 45 44 43 42 42 42 41 39 39 39 39 38 38 38 38 38 38 37 37 38 38 38 38 38 38
46 47 48 49 50 50 51 50 50 50 50 49 49 49 49 49 48 48 47 46 45 44 44 43 43 42 41 40 40 41 40 39 39 39 38 38 39 39 38 39 39 40 39
46 47 48 49 50 50 52 52 52 52 51 51 50 50 51 50 50 50 48 48 46 46 45 45 44 43 43 42 42 43 42 41 41 40 39 40 39 39 39 40 40 40 41
46 47 47 48 49 50 51 53 53 53 53 53 52 52 51 52 52 51 50 49 48 47 47 47 47 46 45 43 43 43 43 43 43 42 41 41 40 41 41 41 41 41 42
45 46 47 48 49 50 51 52 53 54 54 55 54 54 53 53 53 52 51 50 49 49 49 48 48 47 47 45 45 44 44 44 43 43 43 42 42 42 42 42 42 42 43
Wind_Direction
252 252 251 249 246 242 240 241 243 244 244 241 242 242 243 244 243 247 255 259 256 253 252 254 251 250 246 249 248 245 247 253 264 273 284 295 307 314 319 322 330 333 334
253 250 248 249 246 245 244 243 245 249 248 245 244 244 245 247 248 252 255 257 255 256 257 256 255 253 251 251 250 248 252 257 265 272 281 289 298 306 308 310 315 320 324
252 250 249 249 248 246 247 246 247 250 252 247 245 246 245 247 251 254 255 257 256 257 259 259 257 256 255 254 254 255 259 262 267 270 275 281 288 295 299 301 304 308 315
250 250 249 249 249 248 247 247 246 247 251 248 247 248 247 249 251 255 256 257 258 259 262 261 261 260 260 259 257 258 260 263 266 269 274 279 283 286 291 294 297 301 304
250 249 250 249 248 249 248 248 247 247 250 251 251 250 250 250 251 255 258 258 261 262 263 263 266 263 263 262 261 261 262 264 267 270 272 276 281 284 287 290 294 297 299
252 250 249 249 248 248 248 248 248 248 249 250 251 252 252 251 253 255 258 259 261 262 264 265 266 266 265 264 263 263 264 264 267 271 273 273 276 280 284 289 293 296 297
253 251 250 249 248 247 247 248 250 249 249 250 249 251 252 252 253 254 255 257 260 262 263 264 265 266 267 266 264 264 265 265 267 270 272 273 274 276 281 286 290 293 295
253 251 250 250 249 247 247 247 249 250 250 250 249 249 251 253 254 255 256 257 259 261 262 262 263 265 266 267 265 264 267 268 268 270 271 272 274 275 278 283 287 289 291
253 251 250 250 250 249 249 249 249 250 251 250 249 248 250 252 253 255 257 258 259 260 261 262 262 263 265 266 265 264 266 267 269 269 270 272 274 276 277 281 285 287 289
252 251 250 250 250 250 250 249 249 250 251 251 250 249 250 251 252 254 257 258 260 259 260 261 263 263 264 265 266 265 265 267 268 269 270 271 274 276 277 279 282 284 285
252 250 249 249 250 252 251 249 249 249 250 251 251 250 250 251 252 254 256 258 260 260 260 261 262 263 263 264 265 266 267 266 267 268 269 270 272 274 276 277 279 282 283
251 250 249 248 248 251 251 250 249 249 250 250 250 251 251 252 253 254 255 257 259 261 261 261 262 263 263 263 264 266 267 267 266 266 267 268 270 271 273 275 278 280 283
251 249 249 248 248 250 250 250 250 250 250 250 250 251 252 253 254 254 256 257 259 260 261 262 263 263 263 263 264 265 266 266 266 266 267 268 269 270 272 274 276 279 280
250 250 249 249 250 249 250 251 250 251 250 249 250 250 251 253 254 254 255 257 258 260 261 262 263 263 263 263 264 264 265 266 266 266 267 268 269 270 271 273 275 278 279
250 250 250 250 250 249 250 251 251 250 250 250 251 251 251 252 254 255 256 256 258 259 260 262 262 263 264 264 263 263 264 265 267 267 267 268 269 270 271 273 275 277 278
250 250 250 249 249 249 250 250 250 251 251 251 251 251 252 252 253 255 256 256 257 258 259 260 261 262 262 263 263 264 264 264 267 267 268 269 270 270 271 272 273 275 276
251 250 250 249 250 250 251 251 250 250 250 251 251 252 252 253 254 255 255 256 257 258 258 259 260 262 263 263 264 264 265 265 267 268 269 269 270 270 271 271 272 274 276
251 251 251 250 250 250 250 250 250 251 251 251 252 252 252 253 254 256 256 256 257 258 259 258 260 262 263 263 264 264 265 265 266 267 268 269 270 270 270 270 271 273 274
251 250 250 250 250 251 250 249 250 251 251 251 251 253 253 254 255 255 256 256 257 258 259 259 260 261 263 263 264 265 265 265 265 266 267 267 268 270 270 270 271 272 272
251 250 250 249 250 250 250 250 250 251 251 251 251 252 253 255 256 255 257 256 256 257 258 260 261 262 263 264 264 265 265 265 265 265 267 268 268 270 271 270 271 271 272
250 250 250 249 249 250 251 251 251 251 252 252 252 252 252 253 254 255 256 257 256 257 258 259 261 262 263 264 264 264 264 265 265 265 267 268 269 270 270 270 271 271 271
251 251 251 250 250 250 251 252 252 252 252 252 252 252 252 252 253 254 256 256 256 256 257 258 260 261 263 264 264 264 264 264 265 266 267 267 269 270 271 270 269 269 271
252 252 252 252 251 252 252 252 252 252 253 253 252 253 253 253 253 254 255 256 257 257 257 258 259 261 262 262 263 264 264 264 265 266 267 268 269 270 270 271 270 270 271
252 252 253 254 254 254 253 252 252 252 252 252 253 253 253 254 254 254 254 255 256 256 256 257 259 260 261 262 263 264 264 264 264 265 266 267 269 269 270 272 272 272 270
253 253 253 254 255 255 254 253 252 252 252 252 253 254 254 254 254 254 254 254 254 255 256 257 258 259 260 261 262 262 263 263 264 265 266 267 268 269 271 272 272 272 271
255 255 255 255 255 256 256 255 254 253 252 252 253 253 253 253 254 254 253 253 254 255 256 256 258 259 260 260 261 262 262 263 264 265 265 266 267 269 270 271 272 272 271
Height
5840 5840 5841 5842 5843 5844 5845 5845 5846 5847 5848 5849 5850 5851 5851 5852 5853 5854 5855 5855 5856 5857 5858 5858 5858 5858 5859 5859 5860 5860 5861 5861 5861 5862 5862 5862 5862 5862 5862 5862 5862 5861 5861
5837 5838 5839 5840 5841 5842 5843 5844 5844 5845 5846 5847 5848 5849 5850 5851 5852 5853 5853 5854 5855 5856 5856 5857 5857 5857 5858 5858 5859 5859 5859 5860 5860 5860 5861 5861 5861 5861 5861 5861 5861 5860 5860
5834 5835 5836 5837 5838 5839 5840 5841 5842 5843 5844 5845 5846 5847 5848 5849 5850 5851 5852 5853 5854 5854 5855 5855 5856 5856 5856 5857 5857 5858 5858 5858 5859 5859 5859 5859 5860 5860 5860 5860 5860 5859 5859
5831 5832 5833 5834 5835 5836 5838 5839 5840 5841 5842 5843 5844 5845 5846 5847 5848 5849 5850 5851 5852 5852 5853 5854 5854 5854 5855 5855 5856 5856 5856 5857 5857 5858 5858 5858 5858 5858 5858 5858 5858 5858 5857
5827 5828 5830 5831 5832 5833 5835 5836 5837 5838 5839 5840 5841 5842 5843 5844 5845 5846 5847 5849 5849 5850 5851 5851 5852 5852 5853 5853 5854 5854 5854 5855 5855 5856 5856 5856 5856 5856 5856 5856 5856 5856 5855
5823 5824 5826 5827 5828 5830 5831 5833 5834 5835 5836 5837 5838 5839 5840 5842 5843 5844 5845 5846 5847 5847 5848 5849 5849 5850 5850 5851 5851 5852 5852 5853 5853 5853 5854 5854 5854 5854 5854 5854 5854 5853 5853
5818 5820 5822 5823 5824 5826 5827 5829 5830 5831 5832 5834 5834 5836 5837 5838 5839 5840 5841 5842 5843 5844 5845 5846 5846 5847 5847 5848 5848 5849 5849 5850 5850 5851 5851 5851 5851 5851 5851 5851 5851 5851 5851
5813 5815 5817 5818 5820 5821 5823 5825 5826 5827 5828 5829 5831 5832 5833 5834 5836 5837 5838 5839 5840 5841 5842 5842 5843 5843 5844 5844 5845 5846 5846 5847 5847 5848 5848 5848 5848 5848 5848 5848 5848 5848 5848
5807 5809 5811 5813 5814 5816 5818 5820 5821 5823 5824 5825 5826 5828 5829 5830 5832 5833 5834 5835 5836 5837 5838 5838 5839 5839 5840 5840 5841 5842 5842 5843 5844 5844 5845 5845 5845 5845 5845 5845 5845 5845 5845
5801 5803 5805 5807 5809 5811 5813 5815 5816 5818 5819 5820 5822 5823 5825 5826 5827 5828 5830 5831 5832 5832 5833 5834 5834 5835 5836 5836 5837 5837 5838 5839 5839 5840 5841 5841 5842 5842 5842 5842 5842 5842 5841
5794 5796 5799 5801 5803 5805 5807 5809 5810 5812 5814 5815 5817 5818 5819 5821 5822 5823 5825 5826 5827 5827 5828 5829 5830 5830 5831 5832 5832 5833 5834 5834 5835 5836 5837 5837 5838 5838 5838 5838 5838 5838 5837
5787 5789 5792 5794 5797 5799 5801 5803 5804 5806 5807 5809 5811 5812 5814 5815 5817 5818 5819 5820 5821 5822 5823 5824 5824 5825 5826 5827 5827 5828 5829 5829 5830 5831 5832 5832 5833 5833 5834 5834 5834 5833 5833
5780 5782 5784 5787 5789 5792 5794 5796 5798 5800 5801 5803 5805 5806 5808 5809 5811 5812 5813 5814 5815 5816 5817 5818 5819 5819 5820 5821 5822 5823 5823 5824 5825 5825 5826 5827 5828 5828 5828 5829 5829 5829 5828
5773 5775 5778 5780 5782 5784 5787 5789 5791 5793 5794 5796 5798 5799 5801 5803 5804 5806 5807 5808 5809 5810 5811 5812 5813 5814 5814 5815 5816 5817 5817 5818 5819 5820 5820 5821 5822 5822 5823 5823 5823 5823 5823
5766 5768 5770 5772 5774 5777 5779 5781 5784 5785 5787 5789 5790 5792 5794 5796 5797 5799 5800 5801 5802 5803 5804 5805 5806 5807 5808 5809 5810 5811 5811 5812 5813 5814 5814 5815 5816 5816 5817 5817 5817 5818 5817
5757 5760 5761 5764 5766 5769 5771 5773 5776 5777 5779 5781 5783 5784 5786 5788 5789 5791 5792 5794 5795 5796 5797 5798 5799 5801 5802 5802 5803 5804 5805 5806 5807 5807 5808 5808 5809 5810 5810 5811 5811 5811 5811
5748 5750 5753 5755 5758 5760 5762 5765 5767 5769 5771 5772 5774 5776 5778 5779 5781 5783 5784 5786 5787 5788 5789 5791 5792 5793 5794 5795 5796 5797 5798 5799 5800 5800 5801 5802 5802 5803 5803 5804 5804 5804 5804
5739 5741 5743 5746 5748 5751 5753 5755 5758 5760 5762 5764 5766 5767 5769 5771 5772 5774 5775 5777 5778 5779 5781 5782 5784 5785 5786 5787 5788 5789 5790 5791 5792 5793 5794 5794 5795 5795 5796 5796 5797 5797 5797
5728 5731 5733 5736 5738 5741 5743 5745 5748 5750 5752 5754 5756 5758 5760 5762 5763 5765 5766 5768 5769 5771 5772 5774 5775 5776 5777 5779 5780 5781 5782 5783 5784 5785 5786 5786 5787 5787 5788 5788 5789 5789 5789
5718 5720 5723 5725 5728 5730 5732 5735 5738 5740 5742 5744 5746 5748 5750 5752 5753 5755 5757 5758 5760 5762 5763 5764 5766 5767 5768 5769 5770 5772 5773 5774 5775 5776 5777 5778 5778 5779 5779 5780 5780 5781 5781
5706 5709 5711 5714 5717 5719 5721 5724 5726 5729 5731 5733 5735 5737 5739 5741 5743 5745 5747 5749 5751 5752 5754 5755 5757 5758 5759 5760 5761 5762 5764 5765 5766 5767 5768 5769 5770 5770 5770 5771 5772 5772 5772
5694 5697 5700 5702 5705 5707 5710 5712 5714 5717 5719 5722 5724 5726 5728 5730 5732 5734 5737 5739 5741 5742 5744 5745 5747 5748 5750 5751 5752 5752 5754 5757 5757 5758 5759 5760 5760 5761 5761 5762 5763 5763 5763
5683 5685 5688 5690 5692 5695 5697 5699 5702 5704 5707 5710 5712 5714 5717 5719 5721 5723 5726 5728 5730 5732 5734 5735 5737 5739 5740 5741 5742 5743 5744 5746 5748 5749 5750 5751 5751 5752 5752 5753 5753 5753 5754
5672 5674 5676 5678 5680 5682 5684 5687 5689 5692 5694 5697 5699 5702 5705 5707 5710 5712 5714 5717 5719 5721 5724 5725 5727 5728 5729 5731 5732 5733 5734 5736 5737 5740 5741 5741 5742 5742 5743 5743 5743 5743 5744
5660 5662 5664 5666 5668 5669 5671 5673 5676 5678 5681 5684 5686 5689 5692 5695 5697 5700 5703 5705 5708 5710 5712 5714 5716 5718 5719 5720 5721 5722 5723 5725 5727 5729 5731 5732 5732 5733 5733 5733 5733 5733 5733
5649 5650 5652 5654 5655 5657 5658 5660 5663 5665 5668 5671 5673 5676 5679 5682 5685 5688 5691 5693 5696 5698 5701 5703 5705 5706 5708 5709 5711 5712 5713 5715 5716 5718 5720 5721 5722 5723 5722 5722 5722 5722 5722